,,,PA_Meas_PMT16A,,PR_Meas_QMR101_102,,RH_Meas_QMH101,,SR_Meas_QMS101,,TA_Meas_QMH101,,GenWind,,GenWind,
date,time,status,PA,status,PR,status,RH,status,SR,status,TA,status,DirAvg,status,SpdAvg,
2010-01-21, 00:00:05,VALID,1006.29,VALID,0,VALID,81.3849,VALID,0,VALID,25.1832,VALID,7,VALID,0.732422,
2010-01-21, 00:01:05,VALID,1006.3,VALID,0,VALID,81.3696,VALID,0,VALID,25.1637,VALID,340,VALID,1.06836,
2010-01-21, 00:02:05,VALID,1006.25,VALID,0,VALID,81.5298,VALID,0,VALID,25.1637,VALID,352,VALID,1.0082,
2010-01-21, 00:03:05,VALID,1006.24,VALID,0,VALID,81.5451,VALID,0,VALID,25.1637,VALID,327,VALID,0.982031,
2010-01-21, 00:04:05,VALID,1006.21,VALID,0,VALID,81.629,VALID,0,VALID,25.1637,VALID,343,VALID,0.862109,
2010-01-21, 00:05:05,VALID,1006.18,VALID,0,VALID,81.8197,VALID,0,VALID,25.1442,VALID,351,VALID,0.953906,
2010-01-21, 00:06:05,VALID,1006.17,VALID,0,VALID,81.629,VALID,0,VALID,25.1053,VALID,349,VALID,1.21016,
2010-01-21, 00:07:05,VALID,1006.18,VALID,0,VALID,81.9723,VALID,0,VALID,25.0839,VALID,1,VALID,0.884375,
2010-01-21, 00:08:05,VALID,1006.19,VALID,0,VALID,81.7511,VALID,0,VALID,25.0858,VALID,349,VALID,1.23359,
2010-01-21, 00:09:05,VALID,1006.14,VALID,0,VALID,81.9342,VALID,0,VALID,25.0858,VALID,358,VALID,1.1668,
2010-01-21, 00:10:05,VALID,1006.15,VALID,0,VALID,81.9723,VALID,0,VALID,25.0858,VALID,4,VALID,0.832031,
2010-01-21, 00:11:05,VALID,1006.17,VALID,0,VALID,82.1402,VALID,0,VALID,25.0663,VALID,349,VALID,0.928516,
2010-01-21, 00:12:05,VALID,1006.16,VALID,0,VALID,82.041,VALID,0,VALID,25.0469,VALID,359,VALID,1.71484,
2010-01-21, 00:13:05,VALID,1006.14,VALID,0,VALID,81.8579,VALID,0,VALID,25.045,VALID,350,VALID,1.16797,
2010-01-21, 00:14:05,VALID,1006.12,VALID,0,VALID,81.835,VALID,0.100563,VALID,25.0839,VALID,1,VALID,0.791797,
2010-01-21, 00:15:05,VALID,1006.15,VALID,0,VALID,81.8274,VALID,0.100563,VALID,25.0839,VALID,345,VALID,0.488672,
2010-01-21, 00:16:05,VALID,1006.14,VALID,0,VALID,81.6367,VALID,0.100563,VALID,25.1034,VALID,356,VALID,1.02188,
2010-01-21, 00:17:05,VALID,1006.11,VALID,0,VALID,81.4154,VALID,0,VALID,25.1229,VALID,352,VALID,1.23125,
2010-01-21, 00:18:05,VALID,1006.12,VALID,0,VALID,81.4002,VALID,0.100563,VALID,25.1599,VALID,355,VALID,0.603516,
2010-01-21, 00:19:05,VALID,1006.14,VALID,0,VALID,81.568,VALID,0.100563,VALID,25.1813,VALID,351,VALID,0.133594,
2010-01-21, 00:20:05,VALID,1006.13,VALID,0,VALID,81.4078,VALID,0.100563,VALID,25.1599,VALID,337,VALID,0.853516,
2010-01-21, 00:21:05,VALID,1006.15,VALID,0,VALID,81.6138,VALID,0,VALID,25.1618,VALID,349,VALID,0.157813,
2010-01-21, 00:22:05,VALID,1006.16,VALID,0,VALID,81.4841,VALID,0.100563,VALID,25.1618,VALID,355,VALID,0.673437,
2010-01-21, 00:23:05,VALID,1006.13,VALID,0,VALID,81.568,VALID,0.100563,VALID,25.1618,VALID,359,VALID,0.971484,
2010-01-21, 00:24:05,VALID,1006.15,VALID,0,VALID,81.5604,VALID,0,VALID,25.1423,VALID,350,VALID,1.02891,
2010-01-21, 00:25:05,VALID,1006.15,VALID,0,VALID,81.5451,VALID,0.100563,VALID,25.1229,VALID,350,VALID,0.845703,
2010-01-21, 00:26:05,VALID,1006.15,VALID,0,VALID,81.6138,VALID,0.100563,VALID,25.1034,VALID,350,VALID,1.18867,
2010-01-21, 00:27:05,VALID,1006.17,VALID,0,VALID,81.7206,VALID,0,VALID,25.1248,VALID,340,VALID,0.528125,
2010-01-21, 00:28:05,VALID,1006.18,VALID,0,VALID,81.8884,VALID,0.100563,VALID,25.1034,VALID,344,VALID,0.491016,
2010-01-21, 00:29:05,VALID,1006.18,VALID,0,VALID,81.8808,VALID,0.100563,VALID,25.0644,VALID,351,VALID,0.4125,
2010-01-21, 00:30:05,VALID,1006.16,VALID,0,VALID,82.041,VALID,0.100563,VALID,25.0644,VALID,351,VALID,0,
2010-01-21, 00:31:05,VALID,1006.15,VALID,0,VALID,82.3614,VALID,0.100563,VALID,25.045,VALID,343,VALID,0.277344,
2010-01-21, 00:32:05,VALID,1006.15,VALID,0,VALID,82.3995,VALID,0,VALID,25.0255,VALID,343,VALID,0.327344,
2010-01-21, 00:33:05,VALID,1006.14,VALID,0,VALID,82.1478,VALID,0.100563,VALID,25.006,VALID,353,VALID,1.02148,
2010-01-21, 00:34:05,VALID,1006.13,VALID,0,VALID,82.163,VALID,0,VALID,25.0255,VALID,353,VALID,0.398438,
2010-01-21, 00:35:05,VALID,1006.13,VALID,0,VALID,82.4758,VALID,0.100563,VALID,25.0255,VALID,353,VALID,0.0140625,
2010-01-21, 00:36:05,VALID,1006.1,VALID,0,VALID,82.5292,VALID,0.100563,VALID,25.006,VALID,353,VALID,0.398047,
2010-01-21, 00:37:05,VALID,1006.07,VALID,0,VALID,82.3843,VALID,0.100563,VALID,25.0274,VALID,317,VALID,0.351953,
2010-01-21, 00:38:04,VALID,1006.08,VALID,0,VALID,82.3461,VALID,0.100563,VALID,25.006,VALID,344,VALID,1.08398,
2010-01-21, 00:39:04,VALID,1006.06,VALID,0,VALID,82.2698,VALID,0.100563,VALID,25.006,VALID,339,VALID,0.574609,
2010-01-21, 00:40:04,VALID,1006.05,VALID,0,VALID,82.4301,VALID,0.100563,VALID,25.006,VALID,2,VALID,0.675781,
2010-01-21, 00:41:04,VALID,1006.06,VALID,0,VALID,82.5292,VALID,0,VALID,25.006,VALID,358,VALID,0.606641,
2010-01-21, 00:42:04,VALID,1006.06,VALID,0,VALID,82.4072,VALID,0,VALID,24.9866,VALID,345,VALID,0.597266,
2010-01-21, 00:43:04,VALID,1006.07,VALID,0,VALID,82.5521,VALID,0.100563,VALID,24.9866,VALID,347,VALID,0.577734,
2010-01-21, 00:44:04,VALID,1006.04,VALID,0,VALID,82.7657,VALID,0.100563,VALID,24.9671,VALID,349,VALID,0.460547,
2010-01-21, 00:45:04,VALID,1006.05,VALID,0,VALID,82.6513,VALID,0.100563,VALID,24.9457,VALID,350,VALID,0.783984,
2010-01-21, 00:46:04,VALID,1006.01,VALID,0,VALID,82.8039,VALID,0,VALID,24.9671,VALID,336,VALID,0.411719,
2010-01-21, 00:47:04,VALID,1006,VALID,0,VALID,82.6513,VALID,0,VALID,24.969,VALID,351,VALID,0.63125,
2010-01-21, 00:48:04,VALID,1005.97,VALID,0,VALID,82.7352,VALID,0,VALID,24.9671,VALID,350,VALID,0.985937,
2010-01-21, 00:49:04,VALID,1005.94,VALID,0,VALID,82.8878,VALID,0,VALID,24.9476,VALID,8,VALID,0.658594,
2010-01-21, 00:50:04,VALID,1005.95,VALID,0,VALID,83.0709,VALID,0,VALID,24.9476,VALID,3,VALID,0.711719,
2010-01-21, 00:51:04,VALID,1005.92,VALID,0,VALID,83.2463,VALID,0,VALID,24.9087,VALID,354,VALID,0.652734,
2010-01-21, 00:52:04,VALID,1005.91,VALID,0,VALID,83.4142,VALID,0,VALID,24.93,VALID,357,VALID,0.637891,
2010-01-21, 00:53:04,VALID,1005.91,VALID,0,VALID,83.4676,VALID,0.100563,VALID,24.9106,VALID,354,VALID,0.815625,
2010-01-21, 00:54:04,VALID,1005.89,VALID,0,VALID,83.0861,VALID,0,VALID,24.9087,VALID,337,VALID,0.955469,
2010-01-21, 00:55:04,VALID,1005.88,VALID,0,VALID,82.9107,VALID,0,VALID,24.9671,VALID,358,VALID,1.18984,
2010-01-21, 00:56:04,VALID,1005.88,VALID,0,VALID,82.4301,VALID,0,VALID,25.0663,VALID,346,VALID,0.858203,
2010-01-21, 00:57:04,VALID,1005.86,VALID,0,VALID,82.247,VALID,0,VALID,25.0839,VALID,352,VALID,0.959375,
2010-01-21, 00:58:04,VALID,1005.83,VALID,0,VALID,82.2317,VALID,0.100563,VALID,25.1229,VALID,5,VALID,1.37383,
2010-01-21, 00:59:04,VALID,1005.8,VALID,0,VALID,81.9799,VALID,0,VALID,25.1813,VALID,10,VALID,0.945703,
2010-01-21, 01:00:04,VALID,1005.79,VALID,0,VALID,81.7206,VALID,0,VALID,25.2007,VALID,348,VALID,1.17773,
2010-01-21, 01:01:04,VALID,1005.77,VALID,0,VALID,81.3544,VALID,0,VALID,25.2981,VALID,357,VALID,1.10859,
2010-01-21, 01:02:04,VALID,1005.79,VALID,0,VALID,81.2476,VALID,0,VALID,25.3565,VALID,360,VALID,0.683594,
2010-01-21, 01:03:04,VALID,1005.82,VALID,0,VALID,80.9577,VALID,0,VALID,25.3955,VALID,13,VALID,0.961719,
2010-01-21, 01:04:04,VALID,1005.79,VALID,0,VALID,80.4771,VALID,0.100563,VALID,25.413,VALID,354,VALID,2.24883,
2010-01-21, 01:05:04,VALID,1005.83,VALID,0,VALID,80.5533,VALID,0,VALID,25.4734,VALID,1,VALID,1.1293,
2010-01-21, 01:06:04,VALID,1005.85,VALID,0,VALID,80.5076,VALID,0.100563,VALID,25.5142,VALID,340,VALID,0.671484,
2010-01-21, 01:07:04,VALID,1005.85,VALID,0,VALID,80.6144,VALID,0,VALID,25.4714,VALID,25,VALID,0.123047,
2010-01-21, 01:08:04,VALID,1005.83,VALID,0,VALID,80.6602,VALID,0,VALID,25.4928,VALID,18,VALID,0.7625,
2010-01-21, 01:09:04,VALID,1005.84,VALID,0,VALID,80.2177,VALID,0,VALID,25.4928,VALID,345,VALID,1.08242,
2010-01-21, 01:10:04,VALID,1005.79,VALID,0,VALID,80.2253,VALID,0,VALID,25.4928,VALID,345,VALID,0.995313,
2010-01-21, 01:11:04,VALID,1005.83,VALID,0,VALID,80.5152,VALID,0,VALID,25.4714,VALID,344,VALID,0.721094,
2010-01-21, 01:12:04,VALID,1005.83,VALID,0,VALID,80.6373,VALID,0,VALID,25.4734,VALID,352,VALID,0.730469,
2010-01-21, 01:13:04,VALID,1005.83,VALID,0,VALID,80.6983,VALID,0.100563,VALID,25.4928,VALID,360,VALID,0.585547,
2010-01-21, 01:14:04,VALID,1005.81,VALID,0,VALID,80.6983,VALID,0,VALID,25.4753,VALID,5,VALID,0.359766,
2010-01-21, 01:15:04,VALID,1005.81,VALID,0,VALID,80.8661,VALID,0,VALID,25.4558,VALID,360,VALID,0.470313,
2010-01-21, 01:16:04,VALID,1005.8,VALID,0,VALID,80.7059,VALID,0,VALID,25.4363,VALID,5,VALID,0.398828,
2010-01-21, 01:17:04,VALID,1005.76,VALID,0,VALID,80.9424,VALID,0,VALID,25.4363,VALID,349,VALID,0.526953,
2010-01-21, 01:18:04,VALID,1005.75,VALID,0,VALID,80.889,VALID,0,VALID,25.3955,VALID,352,VALID,0.537109,
2010-01-21, 01:19:04,VALID,1005.76,VALID,0,VALID,81.2018,VALID,0,VALID,25.4188,VALID,351,VALID,0.501953,
2010-01-21, 01:20:04,VALID,1005.8,VALID,0,VALID,81.2552,VALID,0,VALID,25.3779,VALID,355,VALID,0.776953,
2010-01-21, 01:21:04,VALID,1005.78,VALID,0,VALID,81.4612,VALID,0,VALID,25.3584,VALID,352,VALID,0.528906,
2010-01-21, 01:22:04,VALID,1005.74,VALID,0,VALID,81.3086,VALID,0,VALID,25.3195,VALID,359,VALID,1.14492,
2010-01-21, 01:23:04,VALID,1005.74,VALID,0,VALID,81.5375,VALID,0,VALID,25.3195,VALID,355,VALID,0.422656,
2010-01-21, 01:24:04,VALID,1005.71,VALID,0,VALID,81.4383,VALID,0,VALID,25.3195,VALID,360,VALID,0.952734,
2010-01-21, 01:25:04,VALID,1005.72,VALID,0,VALID,81.4459,VALID,0,VALID,25.3195,VALID,316,VALID,0.485156,
2010-01-21, 01:26:04,VALID,1005.68,VALID,0,VALID,81.4841,VALID,0,VALID,25.3,VALID,357,VALID,0.89375,
2010-01-21, 01:27:04,VALID,1005.64,VALID,0,VALID,81.8579,VALID,0,VALID,25.2806,VALID,356,VALID,0.625781,
2010-01-21, 01:28:04,VALID,1005.62,VALID,0,VALID,81.6672,VALID,0,VALID,25.2397,VALID,346,VALID,0.698047,
2010-01-21, 01:29:04,VALID,1005.58,VALID,0,VALID,81.6595,VALID,0,VALID,25.2611,VALID,352,VALID,1.38828,
2010-01-21, 01:30:04,VALID,1005.59,VALID,0,VALID,81.774,VALID,0,VALID,25.2611,VALID,293,VALID,0.630469,
2010-01-21, 01:31:04,VALID,1005.56,VALID,0,VALID,81.6595,VALID,0,VALID,25.2806,VALID,358,VALID,0.815234,
2010-01-21, 01:32:04,VALID,1005.55,VALID,0,VALID,81.5909,VALID,0,VALID,25.2825,VALID,357,VALID,0.918359,
2010-01-21, 01:33:04,VALID,1005.53,VALID,0,VALID,81.8808,VALID,0,VALID,25.2416,VALID,359,VALID,0.896484,
2010-01-21, 01:34:04,VALID,1005.52,VALID,0,VALID,81.9799,VALID,0,VALID,25.2435,VALID,338,VALID,0.614453,
2010-01-21, 01:35:04,VALID,1005.56,VALID,0,VALID,81.8731,VALID,0,VALID,25.2221,VALID,349,VALID,0.833203,
2010-01-21, 01:36:04,VALID,1005.54,VALID,0,VALID,81.7969,VALID,0,VALID,25.2027,VALID,346,VALID,0.528516,
2010-01-21, 01:37:04,VALID,1005.52,VALID,0,VALID,81.8197,VALID,0,VALID,25.1813,VALID,344,VALID,0.834375,
2010-01-21, 01:38:04,VALID,1005.52,VALID,0,VALID,82.0333,VALID,0,VALID,25.1832,VALID,328,VALID,0.748438,
2010-01-21, 01:39:04,VALID,1005.55,VALID,0,VALID,82.0181,VALID,0,VALID,25.1637,VALID,344,VALID,0.367578,
2010-01-21, 01:40:04,VALID,1005.54,VALID,0,VALID,82.1249,VALID,0,VALID,25.1442,VALID,331,VALID,0.748047,
2010-01-21, 01:41:04,VALID,1005.54,VALID,0,VALID,82.0257,VALID,0,VALID,25.1442,VALID,360,VALID,0.740625,
2010-01-21, 01:42:04,VALID,1005.55,VALID,0,VALID,82.0333,VALID,0,VALID,25.1248,VALID,353,VALID,0.903906,
2010-01-21, 01:43:04,VALID,1005.54,VALID,0,VALID,82.0028,VALID,0,VALID,25.1461,VALID,357,VALID,1.16484,
2010-01-21, 01:44:04,VALID,1005.53,VALID,0,VALID,82.1783,VALID,0.100563,VALID,25.1229,VALID,352,VALID,0.379687,
2010-01-21, 01:45:04,VALID,1005.52,VALID,0,VALID,82.2317,VALID,0.100563,VALID,25.1034,VALID,344,VALID,0.766016,
2010-01-21, 01:46:04,VALID,1005.51,VALID,0,VALID,82.2012,VALID,0,VALID,25.0839,VALID,357,VALID,1.15508,
2010-01-21, 01:47:04,VALID,1005.49,VALID,0,VALID,82.3614,VALID,0.100563,VALID,25.0644,VALID,347,VALID,0.667188,
2010-01-21, 01:48:04,VALID,1005.45,VALID,0,VALID,82.6742,VALID,0.100563,VALID,25.045,VALID,1,VALID,0.657422,
2010-01-21, 01:49:04,VALID,1005.42,VALID,0,VALID,82.7352,VALID,0.100563,VALID,25.006,VALID,351,VALID,0.932422,
2010-01-21, 01:50:04,VALID,1005.4,VALID,0,VALID,82.8573,VALID,0.100563,VALID,24.9866,VALID,344,VALID,0.673828,
2010-01-21, 01:51:04,VALID,1005.37,VALID,0,VALID,83.2235,VALID,0.100563,VALID,24.9476,VALID,351,VALID,0.704297,
2010-01-21, 01:52:04,VALID,1005.32,VALID,0,VALID,83.1243,VALID,0.100563,VALID,24.93,VALID,343,VALID,0.980859,
2010-01-21, 01:53:04,VALID,1005.33,VALID,0,VALID,83.2006,VALID,0.100563,VALID,24.8873,VALID,339,VALID,0.746484,
2010-01-21, 01:54:04,VALID,1005.3,VALID,0,VALID,83.2158,VALID,0.100563,VALID,24.9068,VALID,355,VALID,0.867188,
2010-01-21, 01:55:04,VALID,1005.33,VALID,0,VALID,83.1167,VALID,0.100563,VALID,24.9282,VALID,353,VALID,1.2793,
2010-01-21, 01:56:04,VALID,1005.33,VALID,0,VALID,83.0098,VALID,0.100563,VALID,24.8873,VALID,310,VALID,0.726953,
2010-01-21, 01:57:04,VALID,1005.35,VALID,0,VALID,82.8573,VALID,0,VALID,24.9282,VALID,346,VALID,0.819531,
2010-01-21, 01:58:04,VALID,1005.34,VALID,0,VALID,82.8649,VALID,0.100563,VALID,24.9476,VALID,350,VALID,0.576172,
2010-01-21, 01:59:04,VALID,1005.34,VALID,0,VALID,82.8725,VALID,0,VALID,24.969,VALID,360,VALID,0.973437,
2010-01-21, 02:00:04,VALID,1005.32,VALID,0,VALID,82.6665,VALID,0,VALID,24.969,VALID,350,VALID,0.988672,
2010-01-21, 02:01:04,VALID,1005.32,VALID,0,VALID,82.636,VALID,0,VALID,24.9885,VALID,2,VALID,1.13477,
2010-01-21, 02:02:04,VALID,1005.3,VALID,0,VALID,82.6208,VALID,0,VALID,25.0098,VALID,340,VALID,0.851563,
2010-01-21, 02:03:04,VALID,1005.32,VALID,0,VALID,82.5597,VALID,0,VALID,25.0079,VALID,356,VALID,0.824609,
2010-01-21, 02:04:04,VALID,1005.3,VALID,0,VALID,82.7199,VALID,0,VALID,24.9866,VALID,352,VALID,0.544922,
2010-01-21, 02:05:04,VALID,1005.32,VALID,0,VALID,82.7581,VALID,0,VALID,24.9885,VALID,343,VALID,0.671875,
2010-01-21, 02:06:04,VALID,1005.32,VALID,0,VALID,82.9107,VALID,0,VALID,24.9885,VALID,337,VALID,0.887109,
2010-01-21, 02:07:04,VALID,1005.34,VALID,0,VALID,82.7962,VALID,0,VALID,24.969,VALID,349,VALID,0.867188,
2010-01-21, 02:08:04,VALID,1005.33,VALID,0,VALID,82.781,VALID,0,VALID,25.0079,VALID,341,VALID,1.0082,
2010-01-21, 02:09:04,VALID,1005.34,VALID,0,VALID,82.7886,VALID,0,VALID,25.0079,VALID,9,VALID,0.473047,
2010-01-21, 02:10:04,VALID,1005.3,VALID,0,VALID,82.842,VALID,0,VALID,25.0079,VALID,2,VALID,0.857422,
2010-01-21, 02:11:04,VALID,1005.29,VALID,0,VALID,82.6208,VALID,0,VALID,25.0079,VALID,351,VALID,0.716797,
2010-01-21, 02:12:04,VALID,1005.29,VALID,0,VALID,82.6437,VALID,0,VALID,24.9866,VALID,355,VALID,0.790234,
2010-01-21, 02:13:04,VALID,1005.25,VALID,0,VALID,82.6742,VALID,0,VALID,25.0469,VALID,307,VALID,0.383203,
2010-01-21, 02:14:04,VALID,1005.27,VALID,0,VALID,82.4301,VALID,0,VALID,25.0274,VALID,331,VALID,0.619531,
2010-01-21, 02:15:04,VALID,1005.24,VALID,0,VALID,82.3461,VALID,0,VALID,25.006,VALID,349,VALID,0.932422,
2010-01-21, 02:16:04,VALID,1005.24,VALID,0,VALID,82.6818,VALID,0,VALID,25.006,VALID,345,VALID,0.70625,
2010-01-21, 02:17:04,VALID,1005.21,VALID,0,VALID,82.4758,VALID,0,VALID,25.0293,VALID,345,VALID,1.02578,
2010-01-21, 02:18:04,VALID,1005.21,VALID,0,VALID,82.4224,VALID,0,VALID,25.0079,VALID,350,VALID,0.872266,
2010-01-21, 02:19:04,VALID,1005.21,VALID,0,VALID,82.6284,VALID,0,VALID,25.0079,VALID,353,VALID,0.472266,
2010-01-21, 02:20:04,VALID,1005.17,VALID,0,VALID,82.7886,VALID,0,VALID,24.9866,VALID,357,VALID,0.270312,
2010-01-21, 02:21:04,VALID,1005.18,VALID,0,VALID,82.5903,VALID,0,VALID,24.9671,VALID,351,VALID,0.597656,
2010-01-21, 02:22:04,VALID,1005.2,VALID,0,VALID,82.7199,VALID,0,VALID,24.9885,VALID,336,VALID,0.758594,
2010-01-21, 02:23:04,VALID,1005.16,VALID,0,VALID,82.9641,VALID,0,VALID,24.9476,VALID,6,VALID,0.603516,
2010-01-21, 02:24:04,VALID,1005.15,VALID,0,VALID,82.7123,VALID,0,VALID,24.969,VALID,355,VALID,0.797266,
2010-01-21, 02:25:04,VALID,1005.18,VALID,0,VALID,82.7886,VALID,0,VALID,24.9709,VALID,320,VALID,0.636719,
2010-01-21, 02:26:04,VALID,1005.14,VALID,0,VALID,82.6208,VALID,0,VALID,24.969,VALID,321,VALID,1.17813,
2010-01-21, 02:27:04,VALID,1005.14,VALID,0,VALID,82.6055,VALID,0,VALID,24.9885,VALID,352,VALID,0.733984,
2010-01-21, 02:28:04,VALID,1005.14,VALID,0,VALID,82.4224,VALID,0,VALID,24.9671,VALID,354,VALID,1.51836,
2010-01-21, 02:29:04,VALID,1005.13,VALID,0,VALID,82.3156,VALID,0.100563,VALID,25.0274,VALID,343,VALID,1.05938,
2010-01-21, 02:30:04,VALID,1005.1,VALID,0,VALID,81.9876,VALID,0,VALID,25.0274,VALID,351,VALID,0.999219,
2010-01-21, 02:31:04,VALID,1005.09,VALID,0,VALID,81.896,VALID,0,VALID,25.0663,VALID,358,VALID,1.03047,
2010-01-21, 02:32:04,VALID,1005.07,VALID,0,VALID,81.8121,VALID,0,VALID,25.0644,VALID,347,VALID,0.667578,
2010-01-21, 02:33:04,VALID,1005.09,VALID,0,VALID,81.8808,VALID,0,VALID,25.1034,VALID,333,VALID,0.16875,
2010-01-21, 02:34:04,VALID,1005.07,VALID,0,VALID,81.5527,VALID,0,VALID,25.1034,VALID,348,VALID,0.893359,
2010-01-21, 02:35:04,VALID,1005.05,VALID,0,VALID,81.5146,VALID,0,VALID,25.1015,VALID,354,VALID,1.08438,
2010-01-21, 02:36:04,VALID,1005.03,VALID,0,VALID,81.3162,VALID,0.100563,VALID,25.1423,VALID,352,VALID,0.923437,
2010-01-21, 02:37:04,VALID,1005.04,VALID,0,VALID,81.1103,VALID,0.100563,VALID,25.2007,VALID,349,VALID,0.772266,
2010-01-21, 02:38:04,VALID,1005.03,VALID,0,VALID,81.2094,VALID,0,VALID,25.2202,VALID,351,VALID,0.635156,
2010-01-21, 02:39:04,VALID,1004.99,VALID,0,VALID,80.9653,VALID,0.100563,VALID,25.2202,VALID,356,VALID,0.694922,
2010-01-21, 02:40:04,VALID,1004.96,VALID,0,VALID,80.7898,VALID,0.100563,VALID,25.2592,VALID,352,VALID,1.0625,
2010-01-21, 02:41:04,VALID,1004.95,VALID,0,VALID,80.7822,VALID,0,VALID,25.2592,VALID,348,VALID,1.14063,
2010-01-21, 02:42:04,VALID,1004.96,VALID,0,VALID,81.1103,VALID,0.100563,VALID,25.3,VALID,347,VALID,0.760156,
2010-01-21, 02:43:04,VALID,1004.94,VALID,0,VALID,81.3086,VALID,0,VALID,25.2592,VALID,353,VALID,0.593359,
2010-01-21, 02:44:04,VALID,1004.92,VALID,0,VALID,81.0645,VALID,0,VALID,25.263,VALID,355,VALID,1.20938,
2010-01-21, 02:45:04,VALID,1004.91,VALID,0,VALID,81.0416,VALID,0,VALID,25.2825,VALID,351,VALID,0.644141,
2010-01-21, 02:46:04,VALID,1004.89,VALID,0,VALID,81.1484,VALID,0,VALID,25.2806,VALID,346,VALID,0.630859,
2010-01-21, 02:47:04,VALID,1004.88,VALID,0,VALID,81.2705,VALID,0,VALID,25.2806,VALID,350,VALID,0.214844,
2010-01-21, 02:48:04,VALID,1004.87,VALID,0,VALID,81.5832,VALID,0,VALID,25.2806,VALID,351,VALID,0.376953,
2010-01-21, 02:49:04,VALID,1004.88,VALID,0,VALID,81.3925,VALID,0,VALID,25.3,VALID,348,VALID,0.348828,
2010-01-21, 02:50:04,VALID,1004.87,VALID,0,VALID,81.1331,VALID,0,VALID,25.3214,VALID,357,VALID,0.689844,
2010-01-21, 02:51:04,VALID,1004.87,VALID,0,VALID,80.9501,VALID,0,VALID,25.2786,VALID,347,VALID,0.566406,
2010-01-21, 02:52:04,VALID,1004.86,VALID,0,VALID,81.0416,VALID,0,VALID,25.3195,VALID,346,VALID,0.353125,
2010-01-21, 02:53:04,VALID,1004.85,VALID,0,VALID,81.156,VALID,0,VALID,25.3409,VALID,346,VALID,0.245312,
2010-01-21, 02:54:04,VALID,1004.86,VALID,0,VALID,81.1484,VALID,0,VALID,25.2981,VALID,350,VALID,0.758203,
2010-01-21, 02:55:04,VALID,1004.86,VALID,0,VALID,80.9424,VALID,0,VALID,25.3195,VALID,345,VALID,0.710547,
2010-01-21, 02:56:04,VALID,1004.86,VALID,0,VALID,81.1484,VALID,0,VALID,25.339,VALID,6,VALID,0.586328,
2010-01-21, 02:57:04,VALID,1004.83,VALID,0,VALID,81.2171,VALID,0,VALID,25.339,VALID,353,VALID,0.444922,
2010-01-21, 02:58:04,VALID,1004.86,VALID,0,VALID,80.9882,VALID,0,VALID,25.339,VALID,355,VALID,0.691406,
2010-01-21, 02:59:04,VALID,1004.86,VALID,0,VALID,80.9348,VALID,0,VALID,25.3584,VALID,336,VALID,0.656641,
2010-01-21, 03:00:04,VALID,1004.87,VALID,0,VALID,81.1865,VALID,0,VALID,25.3584,VALID,8,VALID,0.671484,
2010-01-21, 03:01:04,VALID,1004.88,VALID,0,VALID,81.0569,VALID,0,VALID,25.339,VALID,349,VALID,0.719141,
2010-01-21, 03:02:04,VALID,1004.88,VALID,0,VALID,80.9119,VALID,0,VALID,25.3409,VALID,345,VALID,0.865625,
2010-01-21, 03:03:04,VALID,1004.86,VALID,0,VALID,81.1637,VALID,0,VALID,25.3195,VALID,349,VALID,0.688281,
2010-01-21, 03:04:04,VALID,1004.87,VALID,0,VALID,81.0569,VALID,0,VALID,25.339,VALID,9,VALID,0.823438,
2010-01-21, 03:05:04,VALID,1004.87,VALID,0,VALID,81.3849,VALID,0,VALID,25.3604,VALID,354,VALID,0.740625,
2010-01-21, 03:06:04,VALID,1004.85,VALID,0,VALID,81.1179,VALID,0,VALID,25.3195,VALID,344,VALID,0.86875,
2010-01-21, 03:07:04,VALID,1004.83,VALID,0,VALID,81.3086,VALID,0,VALID,25.3195,VALID,351,VALID,0.553516,
2010-01-21, 03:08:04,VALID,1004.82,VALID,0,VALID,81.2857,VALID,0,VALID,25.3409,VALID,350,VALID,0.507422,
2010-01-21, 03:09:04,VALID,1004.82,VALID,0,VALID,81.2476,VALID,0,VALID,25.3195,VALID,352,VALID,0.591406,
2010-01-21, 03:10:04,VALID,1004.8,VALID,0,VALID,81.0874,VALID,0,VALID,25.3409,VALID,357,VALID,1.27227,
2010-01-21, 03:11:04,VALID,1004.8,VALID,0,VALID,81.1713,VALID,0,VALID,25.339,VALID,15,VALID,0.68125,
2010-01-21, 03:12:04,VALID,1004.8,VALID,0,VALID,81.1408,VALID,0,VALID,25.3584,VALID,341,VALID,0.774609,
2010-01-21, 03:13:04,VALID,1004.83,VALID,0,VALID,81.0416,VALID,0,VALID,25.3584,VALID,334,VALID,0.429688,
2010-01-21, 03:14:04,VALID,1004.79,VALID,0,VALID,81.1713,VALID,0,VALID,25.376,VALID,352,VALID,0.728906,
2010-01-21, 03:15:04,VALID,1004.8,VALID,0,VALID,80.8661,VALID,0,VALID,25.376,VALID,9,VALID,1.19375,
2010-01-21, 03:16:04,VALID,1004.8,VALID,0,VALID,80.8127,VALID,0,VALID,25.4363,VALID,345,VALID,0.682813,
2010-01-21, 03:17:04,VALID,1004.77,VALID,0,VALID,80.9043,VALID,0,VALID,25.4149,VALID,350,VALID,0.612891,
2010-01-21, 03:18:04,VALID,1004.79,VALID,0,VALID,80.5762,VALID,0,VALID,25.4149,VALID,340,VALID,0.697266,
2010-01-21, 03:19:04,VALID,1004.78,VALID,0,VALID,80.7364,VALID,0,VALID,25.4344,VALID,18,VALID,1.01328,
2010-01-21, 03:20:04,VALID,1004.8,VALID,0,VALID,80.7441,VALID,0,VALID,25.4344,VALID,7,VALID,0.758203,
2010-01-21, 03:21:04,VALID,1004.79,VALID,0,VALID,80.7364,VALID,0,VALID,25.4363,VALID,13,VALID,0.569922,
2010-01-21, 03:22:04,VALID,1004.83,VALID,0,VALID,80.9424,VALID,0.100563,VALID,25.3955,VALID,357,VALID,0.39375,
2010-01-21, 03:23:04,VALID,1004.84,VALID,0,VALID,81.1255,VALID,0.100563,VALID,25.376,VALID,357,VALID,0.00117188,
2010-01-21, 03:24:04,VALID,1004.88,VALID,0,VALID,81.0721,VALID,0.100563,VALID,25.3565,VALID,351,VALID,0.839063,
2010-01-21, 03:25:04,VALID,1004.88,VALID,0,VALID,81.2781,VALID,0.100563,VALID,25.3565,VALID,8,VALID,0.836328,
2010-01-21, 03:26:04,VALID,1004.91,VALID,0,VALID,81.7129,VALID,0,VALID,25.337,VALID,359,VALID,0.513672,
2010-01-21, 03:27:04,VALID,1004.91,VALID,0,VALID,81.69,VALID,0.100563,VALID,25.3176,VALID,36,VALID,0.167578,
2010-01-21, 03:28:04,VALID,1004.9,VALID,0,VALID,81.5527,VALID,0.100563,VALID,25.2981,VALID,36,VALID,0.176953,
2010-01-21, 03:29:04,VALID,1004.88,VALID,0,VALID,81.5527,VALID,0,VALID,25.2806,VALID,344,VALID,0.902734,
2010-01-21, 03:30:04,VALID,1004.9,VALID,0,VALID,81.835,VALID,0,VALID,25.3,VALID,338,VALID,0.155859,
2010-01-21, 03:31:04,VALID,1004.84,VALID,0,VALID,81.8426,VALID,0,VALID,25.2806,VALID,339,VALID,0.298047,
2010-01-21, 03:32:04,VALID,1004.89,VALID,0,VALID,81.9265,VALID,0,VALID,25.2611,VALID,343,VALID,0.291016,
2010-01-21, 03:33:04,VALID,1004.85,VALID,0,VALID,82.0715,VALID,0,VALID,25.2611,VALID,343,VALID,0.221875,
2010-01-21, 03:34:04,VALID,1004.85,VALID,0,VALID,82.0715,VALID,0,VALID,25.2221,VALID,347,VALID,0.507031,
2010-01-21, 03:35:04,VALID,1004.85,VALID,0,VALID,82.1173,VALID,0,VALID,25.2221,VALID,358,VALID,0.556641,
2010-01-21, 03:36:04,VALID,1004.83,VALID,0,VALID,82.0257,VALID,0,VALID,25.2221,VALID,1,VALID,0.708594,
2010-01-21, 03:37:04,VALID,1004.86,VALID,0,VALID,82.1859,VALID,0,VALID,25.2221,VALID,284,VALID,0.389844,
2010-01-21, 03:38:04,VALID,1004.87,VALID,0,VALID,81.9189,VALID,0,VALID,25.2027,VALID,352,VALID,1.04336,
2010-01-21, 03:39:04,VALID,1004.88,VALID,0,VALID,81.9799,VALID,0,VALID,25.2416,VALID,323,VALID,0.728125,
2010-01-21, 03:40:04,VALID,1004.89,VALID,0,VALID,81.835,VALID,0,VALID,25.2611,VALID,332,VALID,0.184766,
2010-01-21, 03:41:04,VALID,1004.92,VALID,0,VALID,81.8503,VALID,0,VALID,25.2825,VALID,327,VALID,0.329688,